Time,TemperatureF,DewpointF,PressureIn,WindDirection,WindDirectionDegrees,WindSpeedMPH,WindSpeedGustMPH,Humidity,HourlyPrecipIn,Conditions,Clouds,dailyrainin,SoftwareType,DateUTC
2013-09-26 00:03:00,44.8,41.8,29.79,NW,315,0.0,0.0,89,0.00,,,0.00,WUHU21623XXSP,2013-09-26 05:03:00,
2013-09-26 06:35:00,43.5,41.1,29.85,NW,315,0.0,0.0,91,0.00,,,0.00,WUHU21623XXSP,2013-09-26 11:35:00,
2013-09-26 06:40:00,43.5,41.1,29.86,NW,315,0.0,0.0,91,0.00,,,0.00,WUHU21623XXSP,2013-09-26 11:40:00,
2013-09-26 06:45:00,43.5,41.1,29.86,NW,315,0.0,0.0,90,0.00,,,0.00,WUHU21623XXSP,2013-09-26 11:45:00,
2013-09-26 06:50:00,43.5,41.1,29.86,NW,315,0.0,0.0,91,0.00,,,0.00,WUHU21623XXSP,2013-09-26 11:50:00,
2013-09-26 06:55:00,43.9,41.5,29.86,NW,315,0.0,0.0,91,0.00,,,0.00,WUHU21623XXSP,2013-09-26 11:55:00,
2013-09-26 07:00:00,43.9,41.5,29.86,NW,315,0.0,0.0,91,0.00,,,0.00,WUHU21623XXSP,2013-09-26 12:00:00,
2013-09-26 07:05:00,44.2,41.8,29.86,NW,315,0.0,0.0,91,0.00,,,0.00,WUHU21623XXSP,2013-09-26 12:05:00,
2013-09-26 07:10:00,44.4,42.0,29.87,NW,315,0.0,0.0,91,0.00,,,0.00,WUHU21623XXSP,2013-09-26 12:10:00,
2013-09-26 07:21:00,44.4,42.0,29.86,NW,315,0.0,0.0,91,0.00,,,0.00,WUHU21623XXSP,2013-09-26 12:21:00,
2013-09-26 07:26:00,45.1,42.7,29.87,NW,315,0.0,0.0,91,0.00,,,0.00,WUHU21623XXSP,2013-09-26 12:26:00,
2013-09-26 07:31:00,45.5,43.1,29.87,NW,315,0.0,0.0,91,0.00,,,0.00,WUHU21623XXSP,2013-09-26 12:31:00,
2013-09-26 07:36:00,45.9,43.3,29.87,NW,315,0.0,0.0,91,0.00,,,0.00,WUHU21623XXSP,2013-09-26 12:36:00,
2013-09-26 07:41:00,46.4,44.0,29.87,NW,315,0.0,0.0,91,0.00,,,0.00,WUHU21623XXSP,2013-09-26 12:41:00,
2013-09-26 07:47:00,46.9,44.5,29.87,NW,315,0.0,0.0,91,0.00,,,0.00,WUHU21623XXSP,2013-09-26 12:47:00,
2013-09-26 07:50:00,47.5,45.0,29.87,NW,315,0.0,0.0,91,0.00,,,0.00,WUHU21623XXSP,2013-09-26 12:50:00,
2013-09-26 07:59:00,48.2,45.7,29.87,NW,315,0.0,0.0,91,0.00,,,0.00,WUHU21623XXSP,2013-09-26 12:59:00,
2013-09-26 08:59:00,74.5,65.1,29.88,SE,135,3.8,3.8,72,0.00,,,0.00,WUHU21623XXSP,2013-09-26 13:59:00,
2013-09-26 09:59:00,67.1,59.0,29.88,East,90,4.7,4.7,75,0.00,,,0.00,WUHU21623XXSP,2013-09-26 14:59:00,
2013-09-26 10:59:00,67.1,57.2,29.88,SE,135,7.4,7.4,70,0.00,,,0.00,WUHU21623XXSP,2013-09-26 15:59:00,
2013-09-26 11:59:00,68.7,56.6,29.88,SE,135,2.9,2.9,65,0.00,,,0.00,WUHU21623XXSP,2013-09-26 16:59:00,
2013-09-26 12:59:00,70.0,57.5,29.87,SE,135,3.6,3.6,64,0.00,,,0.00,WUHU21623XXSP,2013-09-26 17:59:00,
2013-09-26 13:59:00,71.2,57.3,29.86,SE,135,6.5,6.5,61,0.00,,,0.00,WUHU21623XXSP,2013-09-26 18:59:00,
2013-09-26 14:30:00,71.4,55.9,29.86,SE,135,5.4,5.4,58,0.00,,,0.00,WUHU21623XXSP,2013-09-26 19:30:00,
2013-09-26 14:35:00,71.4,55.9,29.86,SE,135,7.4,7.4,58,0.00,,,0.00,WUHU21623XXSP,2013-09-26 19:35:00,
2013-09-26 14:40:00,71.4,55.9,29.86,ESE,112,5.8,7.4,58,0.00,,,0.00,WUHU21623XXSP,2013-09-26 19:40:00,
2013-09-26 14:45:00,71.4,56.4,29.86,ESE,112,3.6,5.8,59,0.00,,,0.00,WUHU21623XXSP,2013-09-26 19:45:00,
2013-09-26 14:50:00,71.4,56.4,29.86,ESE,112,5.8,6.9,59,0.00,,,0.00,WUHU21623XXSP,2013-09-26 19:50:00,
2013-09-26 14:55:00,71.4,55.9,29.86,ESE,112,3.6,9.2,58,0.00,,,0.00,WUHU21623XXSP,2013-09-26 19:55:00,
2013-09-26 15:00:00,71.4,56.4,29.86,SE,135,5.4,9.2,59,0.00,,,0.00,WUHU21623XXSP,2013-09-26 20:00:00,
2013-09-26 15:52:00,70.5,54.5,29.86,East,90,5.8,5.8,57,0.00,,,0.00,WUHU21623XXSP,2013-09-26 20:52:00,
2013-09-26 15:57:00,70.3,54.5,29.86,SE,135,6.0,6.0,57,0.00,,,0.00,WUHU21623XXSP,2013-09-26 20:57:00,
2013-09-26 16:02:00,70.3,54.4,29.86,ESE,112,5.4,6.0,57,0.00,,,0.00,WUHU21623XXSP,2013-09-26 21:02:00,
2013-09-26 16:07:00,70.2,54.2,29.86,ENE,67,1.8,6.5,57,0.00,,,0.00,WUHU21623XXSP,2013-09-26 21:07:00,
2013-09-26 16:12:00,70.2,54.2,29.86,ESE,112,3.6,6.5,57,0.00,,,0.00,WUHU21623XXSP,2013-09-26 21:12:00,
2013-09-26 16:17:00,70.0,54.0,29.86,East,90,1.6,5.6,57,0.00,,,0.00,WUHU21623XXSP,2013-09-26 21:17:00,
2013-09-26 16:22:00,70.0,53.5,29.86,SE,135,6.0,6.0,56,0.00,,,0.00,WUHU21623XXSP,2013-09-26 21:22:00,
2013-09-26 16:27:00,70.0,53.5,29.86,ESE,112,5.4,6.0,55,0.00,,,0.00,WUHU21623XXSP,2013-09-26 21:27:00,
2013-09-26 16:32:00,69.6,52.9,29.86,ENE,67,2.7,5.4,56,0.00,,,0.00,WUHU21623XXSP,2013-09-26 21:32:00,
2013-09-26 16:37:00,69.6,52.7,29.86,ESE,112,4.5,7.6,55,0.00,,,0.00,WUHU21623XXSP,2013-09-26 21:37:00,
2013-09-26 16:42:00,69.4,52.5,29.86,East,90,6.7,7.6,55,0.00,,,0.00,WUHU21623XXSP,2013-09-26 21:42:00,
2013-09-26 16:47:00,69.1,52.2,29.86,ESE,112,3.8,6.7,55,0.00,,,0.00,WUHU21623XXSP,2013-09-26 21:47:00,
2013-09-26 16:52:00,68.9,52.5,29.86,ESE,112,5.6,5.6,55,0.00,,,0.00,WUHU21623XXSP,2013-09-26 21:52:00,
2013-09-26 16:57:00,68.7,52.3,29.86,NNW,337,2.0,5.6,56,0.00,,,0.00,WUHU21623XXSP,2013-09-26 21:57:00,
2013-09-26 17:02:00,68.5,51.7,29.86,East,90,8.9,8.9,55,0.00,,,0.00,WUHU21623XXSP,2013-09-26 22:02:00,
2013-09-26 17:07:00,68.2,51.3,29.86,ESE,112,2.7,8.9,55,0.00,,,0.00,WUHU21623XXSP,2013-09-26 22:07:00,
2013-09-26 17:12:00,68.2,51.3,29.86,ESE,112,0.0,6.0,55,0.00,,,0.00,WUHU21623XXSP,2013-09-26 22:12:00,
2013-09-26 17:17:00,67.8,51.0,29.86,SE,135,3.8,3.8,55,0.00,,,0.00,WUHU21623XXSP,2013-09-26 22:17:00,
2013-09-26 17:22:00,67.6,51.8,29.86,ESE,112,4.3,4.3,57,0.00,,,0.00,WUHU21623XXSP,2013-09-26 22:22:00,
2013-09-26 17:24:00,67.3,51.0,29.87,ESE,112,5.1,5.1,56,0.00,,,0.00,WUHU21623XXSP,2013-09-26 22:24:00,
2013-09-26 17:59:00,65.8,50.3,29.87,ESE,113,4.7,4.7,57,0.00,,,0.00,WUHU21623XXSP,2013-09-26 22:59:00,
2013-09-26 18:09:00,64.9,49.7,29.87,ESE,112,0.0,0.0,58,0.00,,,0.00,WUHU21623XXSP,2013-09-26 23:09:00,
2013-09-26 18:14:00,64.6,49.9,29.87,East,90,2.0,2.0,59,0.00,,,0.00,WUHU21623XXSP,2013-09-26 23:14:00,
2013-09-26 18:19:00,64.2,49.5,29.87,East,90,0.0,2.0,59,0.00,,,0.00,WUHU21623XXSP,2013-09-26 23:19:00,
2013-09-26 18:24:00,63.7,49.9,29.86,East,90,0.0,2.0,60,0.00,,,0.00,WUHU21623XXSP,2013-09-26 23:24:00,
2013-09-26 18:29:00,63.3,49.8,29.86,East,90,0.0,0.0,61,0.00,,,0.00,WUHU21623XXSP,2013-09-26 23:29:00,
2013-09-26 18:38:00,62.8,49.5,29.87,ESE,112,1.6,1.6,62,0.00,,,0.00,WUHU21623XXSP,2013-09-26 23:38:00,
2013-09-26 18:43:00,61.7,49.2,29.86,ENE,67,0.0,2.9,64,0.00,,,0.00,WUHU21623XXSP,2013-09-26 23:43:00,
2013-09-26 18:48:00,61.3,49.5,29.87,ESE,112,0.0,2.9,65,0.00,,,0.00,WUHU21623XXSP,2013-09-26 23:48:00,
2013-09-26 18:54:00,61.0,49.3,29.86,ESE,112,0.0,0.0,65,0.00,,,0.00,WUHU21623XXSP,2013-09-26 23:54:00,
2013-09-26 18:59:00,60.4,49.1,29.86,SE,135,0.0,0.0,66,0.00,,,0.00,WUHU21623XXSP,2013-09-26 23:59:00,
2013-09-26 19:04:00,60.1,48.7,29.86,ESE,112,0.9,0.9,66,0.00,,,0.00,WUHU21623XXSP,2013-09-27 00:04:00,
2013-09-26 19:34:00,56.5,47.5,29.87,ESE,112,0.0,0.0,72,0.00,,,0.00,WUHU21623XXSP,2013-09-27 00:34:00,
2013-09-26 19:39:00,55.8,47.2,29.87,ENE,67,0.0,0.0,73,0.00,,,0.00,WUHU21623XXSP,2013-09-27 00:39:00,
2013-09-26 19:44:00,55.2,47.0,29.87,ENE,67,0.0,0.0,74,0.00,,,0.00,WUHU21623XXSP,2013-09-27 00:44:00,
2013-09-26 19:49:00,54.7,46.9,29.87,ENE,67,0.0,0.0,75,0.00,,,0.00,WUHU21623XXSP,2013-09-27 00:49:00,
2013-09-26 19:54:00,53.8,46.0,29.88,ENE,67,0.0,0.0,75,0.00,,,0.00,WUHU21623XXSP,2013-09-27 00:54:00,
2013-09-26 19:59:00,53.2,45.9,29.88,ENE,67,0.0,0.0,76,0.00,,,0.00,WUHU21623XXSP,2013-09-27 00:59:00,
2013-09-26 20:04:00,52.3,45.7,29.88,ENE,67,0.0,0.0,78,0.00,,,0.00,WUHU21623XXSP,2013-09-27 01:04:00,
2013-09-26 20:09:00,52.2,45.5,29.89,ENE,67,0.0,0.0,78,0.00,,,0.00,WUHU21623XXSP,2013-09-27 01:09:00,
2013-09-26 20:14:00,51.6,45.3,29.89,ENE,67,0.0,0.0,79,0.00,,,0.00,WUHU21623XXSP,2013-09-27 01:14:00,
2013-09-26 20:19:00,51.4,45.5,29.88,ENE,67,0.0,0.0,80,0.00,,,0.00,WUHU21623XXSP,2013-09-27 01:19:00,
2013-09-26 20:22:00,51.3,45.3,29.89,ENE,67,0.0,0.0,80,0.00,,,0.00,WUHU21623XXSP,2013-09-27 01:22:00,
2013-09-26 20:45:00,51.1,45.1,29.89,ENE,67,0.0,0.0,80,0.00,,,0.00,WUHU21623XXSP,2013-09-27 01:45:00,
2013-09-26 20:50:00,49.8,44.5,29.89,ENE,67,0.0,0.0,82,0.00,,,0.00,WUHU21623XXSP,2013-09-27 01:50:00,
2013-09-26 20:55:00,49.8,44.5,29.89,ENE,67,0.0,0.0,82,0.00,,,0.00,WUHU21623XXSP,2013-09-27 01:55:00,
2013-09-26 21:00:00,49.6,44.6,29.89,ENE,67,0.0,0.0,83,0.00,,,0.00,WUHU21623XXSP,2013-09-27 02:00:00,
2013-09-26 21:05:00,49.3,44.3,29.89,ENE,67,0.0,0.0,83,0.00,,,0.00,WUHU21623XXSP,2013-09-27 02:05:00,
2013-09-26 21:10:00,49.1,44.1,29.89,ENE,67,0.0,0.0,84,0.00,,,0.00,WUHU21623XXSP,2013-09-27 02:10:00,
2013-09-26 21:15:00,48.9,44.2,29.89,ENE,67,0.0,0.0,84,0.00,,,0.00,WUHU21623XXSP,2013-09-27 02:15:00,
2013-09-26 21:20:00,48.9,44.2,29.90,ENE,67,0.0,0.0,84,0.00,,,0.00,WUHU21623XXSP,2013-09-27 02:20:00,
2013-09-26 21:25:00,48.7,44.1,29.90,ENE,67,0.0,0.0,84,0.00,,,0.00,WUHU21623XXSP,2013-09-27 02:25:00,
2013-09-26 21:30:00,48.6,43.9,29.89,ENE,67,0.0,0.0,84,0.00,,,0.00,WUHU21623XXSP,2013-09-27 02:30:00,
2013-09-26 21:35:00,48.4,43.7,29.90,ENE,67,0.0,0.0,84,0.00,,,0.00,WUHU21623XXSP,2013-09-27 02:35:00,
2013-09-26 21:40:00,48.4,43.7,29.89,ENE,67,0.0,0.0,84,0.00,,,0.00,WUHU21623XXSP,2013-09-27 02:40:00,
2013-09-26 21:45:00,48.2,43.9,29.89,ENE,67,0.0,0.0,85,0.00,,,0.00,WUHU21623XXSP,2013-09-27 02:45:00,
2013-09-26 21:50:00,48.0,43.9,29.90,ENE,67,0.0,0.0,85,0.00,,,0.00,WUHU21623XXSP,2013-09-27 02:50:00,
2013-09-26 21:55:00,48.0,43.7,29.90,ENE,67,0.0,0.0,85,0.00,,,0.00,WUHU21623XXSP,2013-09-27 02:55:00,
2013-09-26 22:00:00,48.0,43.7,29.90,ENE,67,0.0,0.0,85,0.00,,,0.00,WUHU21623XXSP,2013-09-27 03:00:00,
2013-09-26 22:05:00,47.8,43.8,29.90,ENE,67,0.0,0.0,86,0.00,,,0.00,WUHU21623XXSP,2013-09-27 03:05:00,
2013-09-26 22:10:00,47.7,43.7,29.90,ENE,67,0.0,0.0,86,0.00,,,0.00,WUHU21623XXSP,2013-09-27 03:10:00,
2013-09-26 22:15:00,47.7,43.7,29.90,ENE,67,0.0,0.0,86,0.00,,,0.00,WUHU21623XXSP,2013-09-27 03:15:00,
2013-09-26 22:20:00,47.5,43.5,29.90,ENE,67,0.0,0.0,86,0.00,,,0.00,WUHU21623XXSP,2013-09-27 03:20:00,
2013-09-26 22:25:00,47.3,43.3,29.90,ENE,67,0.0,0.0,86,0.00,,,0.00,WUHU21623XXSP,2013-09-27 03:25:00,
2013-09-26 22:30:00,47.1,43.2,29.90,ENE,67,0.0,0.0,86,0.00,,,0.00,WUHU21623XXSP,2013-09-27 03:30:00,
2013-09-26 22:35:00,47.1,43.2,29.90,ENE,67,0.0,0.0,86,0.00,,,0.00,WUHU21623XXSP,2013-09-27 03:35:00,
2013-09-26 22:40:00,46.9,43.0,29.90,ENE,67,0.0,0.0,86,0.00,,,0.00,WUHU21623XXSP,2013-09-27 03:40:00,
2013-09-26 22:45:00,46.8,43.0,29.90,ENE,67,0.0,0.0,86,0.00,,,0.00,WUHU21623XXSP,2013-09-27 03:45:00,
2013-09-26 22:50:00,46.8,42.8,29.90,ENE,67,0.0,0.0,86,0.00,,,0.00,WUHU21623XXSP,2013-09-27 03:50:00,
2013-09-26 22:55:00,46.6,42.6,29.90,NE,45,0.0,0.0,86,0.00,,,0.00,WUHU21623XXSP,2013-09-27 03:55:00,
2013-09-26 23:00:00,46.6,42.9,29.90,NE,45,0.0,0.0,87,0.00,,,0.00,WUHU21623XXSP,2013-09-27 04:00:00,
2013-09-26 23:01:00,46.6,42.9,29.90,NE,45,0.0,0.0,87,0.00,,,0.00,WUHU21623XXSP,2013-09-27 04:01:00,
2013-09-26 23:02:00,46.6,42.9,29.90,NE,45,0.0,0.0,87,0.00,,,0.00,WUHU21623XXSP,2013-09-27 04:02:00,
2013-09-26 23:07:00,46.6,42.9,29.90,NE,45,0.0,0.0,87,0.00,,,0.00,WUHU21623XXSP,2013-09-27 04:07:00,
2013-09-26 23:12:00,46.4,42.8,29.90,NW,315,0.0,0.0,87,0.00,,,0.00,WUHU21623XXSP,2013-09-27 04:12:00,
2013-09-26 23:13:00,46.4,42.8,29.90,NW,315,0.0,0.0,87,0.00,,,0.00,WUHU21623XXSP,2013-09-27 04:13:00,
2013-09-26 23:59:00,46.0,42.3,29.90,NW,315,0.0,0.0,87,0.00,,,0.00,WUHU21623XXSP,2013-09-27 04:59:00,